"startDT [UTC]","vpos","CH4 [ppm]","stdev(CH4) [ppm]","CO2 [ppm]","stdev(CO2) [ppm]","H2O [ppm]","stdev(H2O)","p_LGR [torr]","T_LGR [C]","mt1_LGR [us]","mt2_LGR [us]","T_ECpre [C]","T_EC1 [C]","T_EC2 [C]","p_inlet [hPa]","p_in [hPa]","p_out [hPa]","T_inlet [C]","RH_inlet [%]","dwpt_inlet [C]","T_vent [C]","RH_vent [%]","dwpt_vent [C]","flow_vent [l min-1]","flow_inlet [l min-1]","dwpt_sample [C]","T_room [C]"
2012-07-27 00:00:00,0.0,1.9076,0.0010,385.43,0.27,204.3,32.0,138.00,34.21,24.65,36.46,0.95,12.57,-25.64,-51,553,-941,29.2,21.0,4.6,29.1,1.2,-30.1,5.73,2.40,-26.4,32.5
2012-07-27 00:01:00,0.0,1.9079,0.0009,385.56,0.28,203.9,25.3,138.00,34.20,24.65,36.45,0.96,12.83,-25.63,-51,553,-941,29.2,21.1,4.7,29.1,1.2,-30.2,5.73,2.40,-26.4,32.5
2012-07-27 00:02:00,0.0,1.9071,0.0010,385.81,0.29,205.1,31.2,138.00,34.20,24.65,36.45,0.96,13.08,-25.63,-51,554,-942,29.2,20.8,4.5,29.1,1.2,-30.3,5.73,2.40,-26.4,32.5
2012-07-27 00:03:00,0.0,1.9076,0.0009,385.72,0.29,204.7,25.5,138.00,34.20,24.65,36.45,0.96,13.33,-25.62,-51,553,-942,29.2,20.9,4.5,29.1,1.2,-30.2,5.73,2.41,-26.4,32.5
2012-07-27 00:04:00,0.0,1.9078,0.0010,385.71,0.29,203.3,27.3,138.00,34.19,24.65,36.45,0.95,13.55,-25.62,-51,553,-942,29.2,20.7,4.4,29.1,1.2,-30.3,5.73,2.41,-26.4,32.5
2012-07-27 00:05:00,0.0,1.9069,0.0008,385.61,0.33,206.0,26.7,138.00,34.19,24.65,36.45,0.96,13.78,-25.61,-51,553,-942,29.2,20.8,4.4,29.1,1.2,-30.4,5.73,2.41,-26.4,32.5
2012-07-27 00:06:00,0.0,1.9073,0.0010,385.44,0.27,204.4,28.9,138.00,34.19,24.65,36.45,0.95,13.99,-25.61,-51,554,-942,29.1,21.0,4.5,29.1,1.2,-30.4,5.73,2.41,-26.4,32.5
2012-07-27 00:07:00,0.0,1.9067,0.0007,385.66,0.34,208.1,29.5,138.00,34.19,24.65,36.45,0.97,14.20,-25.60,-51,554,-942,29.2,20.7,4.4,29.1,1.2,-30.4,5.73,2.40,-26.4,32.6
2012-07-27 00:08:00,0.0,1.9072,0.0009,385.76,0.34,202.0,33.1,138.00,34.19,24.65,36.45,0.96,14.39,-25.60,-51,554,-942,29.1,20.7,4.4,29.1,1.2,-30.5,5.73,2.40,-26.4,32.6
2012-07-27 00:09:00,0.0,1.9071,0.0011,385.59,0.24,201.0,30.0,138.00,34.18,24.65,36.45,0.96,14.58,-25.59,-51,553,-942,29.1,20.8,4.4,29.1,1.2,-30.4,5.73,2.40,-26.4,32.6
2012-07-27 00:10:00,0.0,1.9075,0.0011,385.14,0.31,199.6,25.4,138.00,34.18,24.65,36.46,0.96,14.76,-25.59,-51,554,-942,29.2,21.1,4.6,29.1,1.2,-30.4,5.73,2.40,-26.4,32.6
2012-07-27 00:11:00,0.0,1.9075,0.0009,385.20,0.23,202.7,26.6,138.00,34.18,24.65,36.45,0.96,14.94,-25.58,-51,554,-942,29.2,21.0,4.6,29.1,1.2,-30.4,5.73,2.40,-26.4,32.6
2012-07-27 00:12:00,0.0,1.9076,0.0009,385.33,0.32,198.5,30.4,138.00,34.17,24.65,36.45,0.97,15.11,-25.57,-51,554,-942,29.2,21.1,4.6,29.1,1.2,-30.5,5.73,2.40,-26.4,32.6
2012-07-27 00:13:00,0.0,1.9074,0.0010,385.19,0.26,208.1,28.4,138.00,34.17,24.65,36.46,0.98,15.26,-25.57,-51,554,-942,29.2,21.1,4.6,29.1,1.2,-30.4,5.73,2.40,-26.3,32.5
2012-07-27 00:14:00,0.0,1.9085,0.0012,385.09,0.31,202.2,28.8,138.00,34.17,24.65,36.45,0.97,15.42,-25.56,-51,554,-941,29.1,21.3,4.7,29.1,1.2,-30.4,5.73,2.40,-26.0,32.5
2012-07-27 00:15:00,0.0,1.9074,0.0011,385.65,0.32,199.6,31.6,138.00,34.17,24.65,36.44,0.97,15.57,-25.56,-51,554,-941,29.1,20.8,4.4,29.1,1.2,-30.5,5.73,2.40,-26.0,32.6
2012-07-27 00:16:00,0.0,1.9072,0.0010,385.50,0.25,195.0,30.0,138.00,34.17,24.65,36.46,0.97,15.70,-25.55,-51,554,-941,29.1,20.8,4.4,29.1,1.2,-30.4,5.73,2.40,-26.0,32.5
2012-07-27 00:17:00,0.0,1.9081,0.0009,385.64,0.32,200.3,26.9,138.00,34.16,24.65,36.46,0.98,15.83,-25.55,-51,554,-941,29.1,20.8,4.4,29.1,1.2,-30.5,5.73,2.41,-26.1,32.5
2012-07-27 00:18:00,0.0,1.9079,0.0010,385.65,0.34,198.3,31.9,138.00,34.16,24.65,36.45,0.96,15.96,-25.55,-51,553,-941,29.1,20.9,4.5,29.1,1.2,-30.4,5.73,2.41,-26.1,32.5
2012-07-27 00:19:00,0.0,1.9075,0.0010,385.57,0.27,203.7,27.9,138.00,34.16,24.65,36.45,0.97,16.08,-25.54,-51,554,-941,29.1,21.1,4.6,29.0,1.2,-30.4,5.73,2.41,-26.1,32.5
2012-07-27 00:20:00,0.0,1.9074,0.0009,385.59,0.30,198.0,21.7,138.00,34.15,24.65,36.45,0.97,16.20,-25.54,-51,553,-941,29.1,20.9,4.5,29.0,1.2,-30.5,5.73,2.41,-26.1,32.5
2012-07-27 00:21:00,0.0,1.9067,0.0009,385.62,0.25,199.3,30.3,138.00,34.15,24.65,36.45,0.96,16.31,-25.53,-51,553,-941,29.1,20.9,4.5,29.0,1.2,-30.5,5.73,2.40,-26.1,32.5
2012-07-27 00:22:00,0.0,1.9073,0.0012,385.25,0.29,200.3,26.7,138.00,34.15,24.65,36.45,0.96,16.42,-25.53,-51,553,-941,29.1,21.2,4.7,29.0,1.2,-30.5,5.73,2.40,-26.1,32.5
2012-07-27 00:23:00,0.0,1.9072,0.0010,385.55,0.25,192.9,33.6,138.00,34.14,24.65,36.45,0.97,16.52,-25.53,-51,553,-941,29.1,20.9,4.5,29.0,1.2,-30.5,5.73,2.40,-26.1,32.6
2012-07-27 00:24:00,0.0,1.9062,0.0010,385.47,0.31,197.0,28.1,138.00,34.14,24.65,36.45,0.97,16.62,-25.52,-51,553,-941,29.1,21.0,4.6,29.0,1.2,-30.5,5.73,2.40,-26.1,32.6
2012-07-27 00:25:00,0.0,1.9066,0.0008,385.08,0.35,191.9,28.9,138.00,34.13,24.65,36.45,0.97,16.71,-25.52,-51,553,-942,29.1,21.3,4.7,29.0,1.2,-30.5,5.73,2.40,-26.1,32.5
2012-07-27 00:26:00,0.0,1.9059,0.0012,385.03,0.28,197.4,23.9,138.00,34.13,24.65,36.45,0.97,16.80,-25.52,-51,553,-942,29.1,21.2,4.7,29.0,1.2,-30.4,5.73,2.40,-26.2,32.5
2012-07-27 00:27:00,0.0,1.9059,0.0010,385.31,0.27,197.3,24.7,138.00,34.13,24.65,36.45,0.97,16.89,-25.51,-51,553,-942,29.1,21.0,4.5,29.0,1.2,-30.5,5.73,2.40,-26.1,32.5
2012-07-27 00:28:00,0.0,1.9058,0.0009,385.30,0.25,199.4,29.8,138.00,34.13,24.65,36.45,0.98,16.97,-25.51,-51,553,-942,29.1,21.0,4.5,29.0,1.2,-30.5,5.73,2.41,-26.2,32.4
2012-07-27 00:29:00,0.0,1.9062,0.0010,385.38,0.26,199.2,30.1,138.00,34.13,24.65,36.45,0.97,17.05,-25.51,-51,553,-942,29.1,20.9,4.5,29.0,1.2,-30.5,5.73,2.41,-26.2,32.4
2012-07-27 00:30:00,0.0,1.9069,0.0008,384.96,0.33,198.9,27.4,138.00,34.12,24.65,36.46,0.97,17.12,-25.51,-51,553,-941,29.1,21.2,4.6,29.0,1.2,-30.5,5.73,2.41,-26.2,32.4
2012-07-27 00:31:00,0.0,1.9065,0.0009,385.26,0.29,199.1,25.8,138.00,34.12,24.65,36.45,0.95,17.20,-25.50,-51,553,-941,29.1,21.0,4.5,29.0,1.2,-30.5,5.73,2.41,-26.2,32.4
2012-07-27 00:32:00,0.0,1.9066,0.0009,385.36,0.35,204.4,27.8,138.00,34.12,24.65,36.44,0.97,17.26,-25.50,-51,553,-941,29.1,21.0,4.5,29.0,1.2,-30.5,5.73,2.41,-26.2,32.4
2012-07-27 00:33:00,0.0,1.9064,0.0009,385.46,0.33,196.8,29.1,138.00,34.12,24.66,36.45,0.98,17.33,-25.50,-51,553,-941,29.1,21.0,4.5,29.0,1.2,-30.5,5.73,2.41,-26.2,32.4
2012-07-27 00:34:00,0.0,1.9072,0.0009,385.42,0.29,186.9,30.9,138.00,34.11,24.65,36.45,0.96,17.40,-25.49,-51,553,-941,29.1,21.1,4.5,29.0,1.2,-30.4,5.73,2.41,-26.2,32.5
2012-07-27 00:35:00,0.0,1.9072,0.0012,385.36,0.28,193.1,28.3,138.00,34.11,24.65,36.46,0.97,17.46,-25.49,-51,553,-941,29.1,21.0,4.5,29.0,1.2,-30.5,5.73,2.41,-26.2,32.4
2012-07-27 00:36:00,0.0,1.9078,0.0010,385.16,0.31,200.9,26.5,138.00,34.11,24.65,36.45,0.96,17.51,-25.49,-51,553,-941,29.1,21.2,4.7,29.0,1.2,-30.5,5.73,2.40,-26.2,32.4
2012-07-27 00:37:00,0.0,1.9076,0.0010,385.51,0.33,193.8,33.2,138.00,34.11,24.65,36.45,0.97,17.57,-25.48,-51,553,-941,29.1,21.0,4.5,29.0,1.2,-30.5,5.73,2.40,-26.2,32.5
2012-07-27 00:38:00,0.0,1.9075,0.0010,385.39,0.27,191.0,27.9,138.00,34.10,24.65,36.46,0.97,17.62,-25.49,-51,553,-942,29.1,21.0,4.5,29.0,1.2,-30.5,5.73,2.40,-26.2,32.5
2012-07-27 00:39:00,0.0,1.9076,0.0010,385.43,0.30,189.2,32.0,138.00,34.10,24.65,36.45,0.96,17.68,-25.48,-51,553,-942,29.1,21.1,4.6,29.0,1.2,-30.6,5.73,2.40,-26.2,32.5
2012-07-27 00:40:00,0.0,1.9080,0.0009,385.14,0.30,190.8,30.3,138.00,34.10,24.65,36.45,0.96,17.72,-25.48,-51,553,-942,29.1,21.2,4.7,29.0,1.2,-30.6,5.73,2.40,-26.2,32.5
2012-07-27 00:41:00,0.0,1.9078,0.0008,385.37,0.29,190.5,25.2,138.00,34.10,24.65,36.46,0.96,17.77,-25.48,-51,553,-942,29.1,21.0,4.5,29.0,1.2,-30.6,5.73,2.40,-26.3,32.5
2012-07-27 00:42:00,0.0,1.9081,0.0009,385.56,0.28,186.9,25.8,138.00,34.09,24.65,36.45,0.96,17.81,-25.48,-51,553,-942,29.1,21.1,4.6,29.0,1.2,-30.6,5.73,2.40,-26.3,32.5
2012-07-27 00:43:00,0.0,1.9085,0.0009,385.20,0.33,196.0,31.5,138.00,34.09,24.65,36.46,0.96,17.85,-25.48,-51,553,-942,29.1,21.3,4.7,29.0,1.2,-30.7,5.73,2.41,-26.2,32.5
2012-07-27 00:44:00,0.0,1.9083,0.0008,385.31,0.33,189.0,30.9,138.00,34.09,24.65,36.45,0.96,17.89,-25.48,-51,553,-942,29.1,21.4,4.8,29.0,1.2,-30.6,5.73,2.41,-26.3,32.5
2012-07-27 00:45:00,0.0,1.9081,0.0009,385.02,0.29,186.9,30.9,138.00,34.09,24.65,36.45,0.96,17.93,-25.48,-51,553,-942,29.1,21.4,4.8,29.0,1.2,-30.7,5.73,2.41,-26.3,32.5
2012-07-27 00:46:00,0.0,1.9072,0.0009,385.57,0.25,188.5,29.5,138.00,34.08,24.65,36.45,0.96,17.97,-25.47,-51,553,-941,29.1,21.1,4.6,29.0,1.2,-30.7,5.73,2.41,-26.3,32.5
2012-07-27 00:47:00,0.0,1.9070,0.0011,385.43,0.26,192.2,29.4,138.00,34.08,24.65,36.45,0.97,18.01,-25.47,-51,553,-942,29.1,21.0,4.5,29.0,1.2,-30.6,5.73,2.41,-26.3,32.5
2012-07-27 00:48:00,0.0,1.9059,0.0010,385.23,0.38,193.6,29.1,138.00,34.08,24.65,36.46,0.96,18.04,-25.47,-51,553,-941,29.1,21.0,4.5,29.0,1.2,-30.7,5.73,2.41,-26.3,32.5
2012-07-27 00:49:00,0.0,1.9057,0.0009,385.15,0.35,190.9,24.5,138.00,34.08,24.65,36.46,0.97,18.07,-25.47,-51,553,-941,29.1,21.0,4.5,29.0,1.2,-30.8,5.73,2.41,-26.3,32.5
2012-07-27 00:50:00,0.0,1.9051,0.0011,385.40,0.28,192.5,32.7,138.00,34.08,24.65,36.45,0.97,18.10,-25.47,-51,553,-941,29.1,20.8,4.4,29.0,1.2,-30.8,5.73,2.41,-26.3,32.5
2012-07-27 00:51:00,0.0,1.9050,0.0009,385.52,0.32,190.2,27.9,138.00,34.08,24.65,36.45,0.96,18.13,-25.47,-51,553,-941,29.0,20.7,4.3,29.0,1.2,-30.7,5.73,2.41,-26.3,32.5
2012-07-27 00:52:00,0.0,1.9052,0.0009,385.27,0.28,185.9,25.4,138.00,34.07,24.65,36.46,0.96,18.16,-25.47,-51,553,-941,29.1,21.0,4.5,29.0,1.2,-30.7,5.73,2.41,-26.3,32.4
2012-07-27 00:53:00,0.0,1.9054,0.0011,385.27,0.38,196.3,30.1,138.00,34.07,24.65,36.45,0.96,18.18,-25.47,-51,553,-941,29.0,21.2,4.6,29.0,1.2,-30.7,5.73,2.40,-26.3,32.4
2012-07-27 00:54:00,0.0,1.9053,0.0009,385.21,0.26,193.9,29.3,138.00,34.06,24.65,36.46,0.97,18.21,-25.48,-51,553,-941,29.1,21.0,4.5,29.0,1.2,-30.8,5.73,2.40,-26.3,32.5
2012-07-27 00:55:00,0.0,1.9065,0.0010,385.15,0.27,191.0,31.0,138.00,34.06,24.65,36.46,0.96,18.23,-25.47,-51,553,-941,29.0,21.0,4.5,29.0,1.2,-30.8,5.73,2.40,-26.3,32.5
2012-07-27 00:56:00,0.0,1.9067,0.0010,385.38,0.24,193.9,28.0,138.00,34.06,24.65,36.45,0.97,18.26,-25.48,-51,553,-941,29.1,21.0,4.5,29.0,1.2,-30.7,5.73,2.40,-26.3,32.4
2012-07-27 00:57:00,0.0,1.9071,0.0009,385.25,0.26,201.8,26.3,138.00,34.06,24.65,36.45,0.98,18.28,-25.48,-51,553,-941,29.0,21.1,4.5,29.0,1.2,-30.7,5.73,2.41,-26.3,32.4
2012-07-27 00:58:00,0.0,1.9079,0.0011,385.09,0.28,186.9,33.8,138.00,34.06,24.65,36.45,0.96,18.30,-25.47,-51,553,-941,29.0,21.3,4.7,29.0,1.2,-30.7,5.73,2.40,-26.3,32.5
2012-07-27 00:59:00,0.0,1.9079,0.0008,385.06,0.27,190.3,28.8,138.00,34.06,24.65,36.46,0.96,18.32,-25.47,-51,553,-941,29.0,21.3,4.7,29.0,1.2,-30.8,5.73,2.41,-26.3,32.4
2012-07-27 01:00:00,0.0,1.9074,0.0008,385.19,0.31,183.7,26.8,138.00,34.05,24.65,36.45,0.97,18.34,-25.47,-51,553,-941,29.0,21.2,4.6,29.0,1.2,-30.8,5.73,2.41,-26.4,32.5
2012-07-27 01:01:00,0.0,1.9075,0.0010,385.26,0.29,189.2,31.2,138.00,34.05,24.65,36.45,0.97,18.36,-25.47,-51,553,-941,29.0,21.1,4.5,29.0,1.2,-30.7,5.73,2.41,-26.4,32.4
2012-07-27 01:02:00,0.0,1.9074,0.0011,385.10,0.30,190.1,29.2,138.00,34.05,24.65,36.46,0.98,18.38,-25.46,-51,553,-942,29.0,21.2,4.6,29.0,1.2,-30.8,5.73,2.41,-26.4,32.5
2012-07-27 01:03:00,0.0,1.9074,0.0010,385.02,0.28,177.6,32.5,138.00,34.04,24.65,36.45,0.96,18.40,-25.46,-51,553,-942,29.0,21.3,4.6,29.0,1.2,-30.7,5.73,2.41,-26.4,32.5
2012-07-27 01:04:00,0.0,1.9071,0.0012,384.70,0.28,175.9,29.5,138.00,34.04,24.65,36.46,0.95,18.41,-25.46,-51,553,-942,29.0,21.3,4.7,29.0,1.2,-30.7,5.73,2.41,-26.4,32.4
2012-07-27 01:05:00,0.0,1.9060,0.0010,384.76,0.31,187.8,25.7,138.00,34.04,24.65,36.45,0.97,18.43,-25.47,-51,553,-941,29.0,21.3,4.7,29.0,1.2,-30.7,5.73,2.41,-26.4,32.4
2012-07-27 01:06:00,0.0,1.9074,0.0009,385.03,0.36,179.8,25.8,138.00,34.04,24.65,36.46,0.99,18.44,-25.46,-51,553,-942,29.0,21.2,4.6,29.0,1.2,-30.8,5.73,2.41,-26.4,32.4
2012-07-27 01:07:00,0.0,1.9061,0.0014,385.19,0.31,179.9,30.5,138.00,34.03,24.65,36.46,0.96,18.46,-25.47,-51,553,-941,29.0,21.0,4.5,29.0,1.2,-30.8,5.73,2.41,-26.4,32.4
2012-07-27 01:08:00,0.0,1.9051,0.0008,385.32,0.36,190.0,31.7,138.00,34.03,24.65,36.46,0.98,18.47,-25.47,-51,553,-942,29.0,20.8,4.3,29.0,1.2,-30.7,5.73,2.41,-26.4,32.4
2012-07-27 01:09:00,0.0,1.9051,0.0010,385.31,0.26,187.3,29.8,138.00,34.03,24.65,36.45,0.99,18.48,-25.47,-51,553,-942,29.0,20.9,4.4,29.0,1.2,-30.7,5.73,2.41,-26.4,32.4
2012-07-27 01:10:00,0.0,1.9052,0.0012,385.34,0.41,178.5,28.8,138.00,34.02,24.65,36.45,0.97,18.50,-25.47,-51,553,-942,29.0,20.8,4.3,29.0,1.2,-30.7,5.73,2.40,-26.4,32.4
2012-07-27 01:11:00,0.0,1.9052,0.0010,385.32,0.37,180.1,28.2,138.00,34.02,24.65,36.45,1.09,18.06,-25.47,-51,553,-942,29.0,20.8,4.3,29.0,1.2,-30.7,5.73,2.40,-26.4,32.4
2012-07-27 01:12:00,0.0,1.9051,0.0009,385.16,0.30,182.7,27.6,138.00,34.02,24.65,36.46,1.08,16.20,-25.48,-51,553,-942,29.0,20.9,4.4,29.0,1.2,-30.8,5.73,2.40,-26.4,32.4
2012-07-27 01:13:00,0.0,1.9043,0.0010,385.14,0.42,186.2,28.1,138.00,34.02,24.65,36.46,1.12,13.91,-25.47,-51,553,-941,29.0,21.0,4.4,29.0,1.2,-30.8,5.73,2.41,-26.4,32.4
2012-07-27 01:14:00,0.0,1.9045,0.0010,384.84,0.48,178.7,24.6,138.00,34.01,24.65,36.46,1.01,11.57,-25.47,-51,553,-941,29.0,21.2,4.6,28.9,1.2,-30.7,5.73,2.41,-26.4,32.3
2012-07-27 01:15:00,0.0,1.9045,0.0010,385.42,0.30,182.7,25.9,138.00,34.01,24.65,36.46,1.03,9.29,-25.47,-51,553,-941,29.0,20.9,4.4,29.0,1.2,-30.8,5.73,2.41,-26.4,32.4
2012-07-27 01:16:00,0.0,1.9040,0.0012,385.14,0.25,184.1,24.6,138.00,34.01,24.65,36.46,1.12,7.11,-25.46,-51,553,-941,29.0,21.0,4.4,29.0,1.2,-30.5,5.73,2.41,-26.4,32.4
2012-07-27 01:17:00,0.0,1.9040,0.0010,385.36,0.38,188.9,28.1,138.00,34.00,24.65,36.46,1.06,5.03,-25.44,-51,553,-942,29.0,20.8,4.3,29.0,1.2,-30.5,5.73,2.41,-26.4,32.3
2012-07-27 01:18:00,0.0,1.9047,0.0009,384.76,0.35,185.5,26.4,138.00,34.00,24.65,36.46,1.03,3.05,-25.42,-51,553,-942,29.0,21.2,4.6,29.0,1.2,-30.5,5.73,2.41,-26.4,32.3
2012-07-27 01:19:00,0.0,1.9060,0.0009,385.10,0.29,186.1,29.1,138.00,34.00,24.65,36.46,1.11,1.18,-25.40,-51,553,-942,29.0,21.1,4.5,29.0,1.2,-30.5,5.73,2.41,-26.4,32.3
2012-07-27 01:20:00,0.0,1.9054,0.0009,384.99,0.31,183.4,29.2,138.00,34.00,24.65,36.45,1.06,-0.60,-25.38,-51,553,-941,29.0,21.3,4.6,29.0,1.2,-30.5,5.73,2.41,-26.4,32.3
2012-07-27 01:21:00,0.0,1.9050,0.0010,384.83,0.29,181.9,27.6,138.00,34.00,24.65,36.46,1.01,-2.23,-25.37,-51,553,-941,29.0,21.1,4.6,29.0,1.2,-30.5,5.73,2.41,-26.4,32.3
2012-07-27 01:22:00,0.0,1.9051,0.0010,385.40,0.35,181.9,26.5,138.00,33.99,24.65,36.46,1.10,-3.40,-25.36,-51,553,-941,29.0,20.6,4.2,29.0,1.2,-30.5,5.73,2.41,-26.4,32.3
2012-07-27 01:23:00,0.0,1.9049,0.0008,385.15,0.31,183.6,28.9,138.00,33.99,24.65,36.45,1.08,-4.52,-25.35,-51,553,-941,29.0,20.8,4.3,29.0,1.2,-30.5,5.73,2.41,-26.4,32.3
2012-07-27 01:24:00,0.0,1.9051,0.0010,385.28,0.26,186.0,26.0,138.00,33.99,24.65,36.45,1.00,-6.07,-25.34,-51,553,-941,29.0,20.7,4.3,29.0,1.2,-30.5,5.73,2.41,-26.4,32.4
2012-07-27 01:25:00,0.0,1.9052,0.0011,385.23,0.30,180.4,27.2,138.00,33.99,24.65,36.45,1.08,-7.41,-25.32,-51,553,-941,29.0,20.8,4.3,29.0,1.2,-30.5,5.73,2.40,-26.4,32.4
2012-07-27 01:26:00,0.0,1.9050,0.0009,385.29,0.28,186.5,27.7,138.00,33.99,24.65,36.45,1.11,-8.60,-25.32,-51,553,-941,29.0,20.7,4.3,29.0,1.2,-30.5,5.73,2.40,-26.4,32.3
2012-07-27 01:27:00,0.0,1.9051,0.0010,385.15,0.29,181.0,25.7,138.00,33.99,24.65,36.45,1.01,-9.71,-25.31,-51,553,-941,29.0,20.9,4.4,29.0,1.2,-30.5,5.73,2.40,-26.4,32.3
2012-07-27 01:28:00,0.0,1.9049,0.0011,384.70,0.34,175.0,31.3,138.00,33.99,24.65,36.45,1.03,-10.72,-25.31,-51,553,-942,29.0,21.2,4.6,29.0,1.2,-30.5,5.73,2.40,-26.4,32.3
2012-07-27 01:29:00,0.0,1.9049,0.0008,385.10,0.27,183.7,28.1,138.00,33.98,24.65,36.45,1.10,-11.81,-25.30,-51,553,-942,29.0,20.8,4.4,29.0,1.2,-30.5,5.73,2.40,-26.4,32.4
2012-07-27 01:30:00,0.0,1.9053,0.0009,385.07,0.31,178.8,27.6,138.00,33.98,24.65,36.46,1.05,-12.78,-25.30,-51,553,-942,29.0,20.8,4.3,29.0,1.2,-30.5,5.73,2.40,-26.4,32.4
2012-07-27 01:31:00,0.0,1.9049,0.0008,384.84,0.34,182.2,32.2,138.00,33.98,24.65,36.46,1.00,-13.73,-25.30,-51,553,-942,29.0,20.9,4.4,29.0,1.2,-30.5,5.73,2.40,-26.4,32.4
2012-07-27 01:32:00,0.0,1.9050,0.0009,384.53,0.30,176.2,31.7,138.00,33.98,24.65,36.46,1.06,-14.62,-25.30,-51,553,-941,29.0,21.1,4.6,29.0,1.2,-30.5,5.73,2.40,-26.4,32.4
2012-07-27 01:33:00,0.0,1.9050,0.0009,385.06,0.29,181.3,29.7,138.00,33.98,24.65,36.45,1.10,-15.45,-25.30,-51,553,-941,29.0,20.9,4.4,29.0,1.2,-30.5,5.73,2.41,-26.4,32.4
2012-07-27 01:34:00,0.0,1.9046,0.0009,384.93,0.25,182.6,31.6,138.00,33.98,24.65,36.46,1.02,-16.21,-25.31,-51,553,-941,29.0,20.8,4.3,29.0,1.2,-30.5,5.73,2.40,-26.4,32.5
2012-07-27 01:35:00,0.0,1.9046,0.0009,385.30,0.31,178.0,25.6,138.00,33.98,24.65,36.46,1.00,-16.91,-25.31,-51,553,-941,29.0,20.6,4.2,29.0,1.2,-30.5,5.73,2.41,-26.4,32.4
2012-07-27 01:36:00,0.0,1.9051,0.0009,385.18,0.33,183.7,27.6,138.00,33.98,24.65,36.45,1.06,-17.59,-25.31,-51,553,-941,29.0,20.7,4.3,29.0,1.2,-30.5,5.73,2.41,-26.4,32.4
2012-07-27 01:37:00,0.0,1.9052,0.0012,385.09,0.31,177.0,29.0,138.00,33.98,24.65,36.45,1.10,-18.23,-25.32,-51,553,-941,29.0,20.7,4.3,29.0,1.2,-30.5,5.73,2.41,-26.4,32.4
2012-07-27 01:38:00,0.0,1.9056,0.0010,384.83,0.32,182.3,23.3,138.00,33.98,24.65,36.46,1.04,-18.83,-25.33,-51,553,-941,29.0,20.9,4.4,29.0,1.2,-30.5,5.73,2.40,-26.4,32.5
2012-07-27 01:39:00,0.0,1.9057,0.0008,385.19,0.31,177.2,31.8,138.00,33.97,24.65,36.45,0.99,-19.40,-25.33,-51,553,-942,29.0,20.8,4.3,29.0,1.2,-30.5,5.73,2.40,-26.4,32.5
2012-07-27 01:40:00,0.0,1.9057,0.0010,385.09,0.33,178.2,29.0,138.00,33.97,24.65,36.45,1.05,-19.95,-25.34,-51,553,-942,29.0,20.7,4.3,29.0,1.2,-30.5,5.73,2.40,-26.4,32.5
2012-07-27 01:41:00,0.0,1.9049,0.0008,385.02,0.24,178.8,28.7,138.00,33.97,24.65,36.46,1.09,-20.48,-25.34,-51,553,-942,29.0,20.8,4.4,29.0,1.2,-30.5,5.73,2.40,-26.4,32.4
2012-07-27 01:42:00,0.0,1.9046,0.0011,385.07,0.29,192.3,29.0,138.00,33.97,24.65,36.45,1.03,-20.98,-25.35,-51,553,-941,29.0,20.6,4.2,29.0,1.2,-30.5,5.73,2.40,-26.4,32.4
2012-07-27 01:43:00,0.0,1.9046,0.0012,385.14,0.30,179.0,31.9,138.00,33.97,24.65,36.46,0.98,-21.45,-25.37,-51,553,-941,29.0,20.7,4.3,29.0,1.2,-30.5,5.73,2.40,-26.4,32.4
2012-07-27 01:44:00,0.0,1.9046,0.0009,384.79,0.41,182.9,26.3,138.00,33.97,24.65,36.46,1.04,-21.88,-25.37,-51,553,-941,29.0,21.2,4.6,29.0,1.2,-30.5,5.73,2.40,-26.4,32.4
2012-07-27 01:45:00,0.0,1.9047,0.0008,384.81,0.37,187.7,31.0,138.00,33.96,24.65,36.45,1.08,-22.29,-25.39,-51,553,-941,29.0,21.1,4.6,29.0,1.2,-30.6,5.73,2.40,-26.4,32.4
2012-07-27 01:46:00,0.0,1.9051,0.0009,385.04,0.33,185.0,29.4,138.00,33.96,24.65,36.45,1.06,-22.68,-25.40,-51,553,-942,29.0,20.9,4.4,29.0,1.2,-30.7,5.73,2.40,-26.4,32.4
2012-07-27 01:47:00,0.0,1.9052,0.0010,385.23,0.30,183.1,28.9,138.00,33.96,24.65,36.46,0.99,-23.05,-25.40,-51,553,-942,29.0,20.9,4.4,29.0,1.2,-30.7,5.73,2.40,-26.4,32.4
2012-07-27 01:48:00,0.0,1.9053,0.0008,384.82,0.33,178.3,27.3,138.00,33.96,24.65,36.46,1.01,-23.40,-25.41,-51,553,-942,29.0,21.1,4.5,29.0,1.2,-30.7,5.73,2.40,-26.4,32.5
2012-07-27 01:49:00,0.0,1.9054,0.0011,385.08,0.27,176.9,27.8,138.00,33.96,24.65,36.45,1.07,-23.73,-25.42,-51,553,-942,29.0,21.1,4.5,29.0,1.2,-30.8,5.73,2.40,-26.4,32.4
2012-07-27 01:50:00,0.0,1.9053,0.0010,384.53,0.28,175.0,27.0,138.00,33.96,24.65,36.46,1.08,-24.05,-25.43,-51,553,-941,29.0,21.3,4.7,29.0,1.2,-30.7,5.73,2.41,-26.5,32.4
2012-07-27 01:51:00,0.0,1.9050,0.0009,384.69,0.30,187.2,27.5,138.00,33.96,24.65,36.46,1.01,-24.34,-25.45,-51,553,-941,29.0,21.0,4.4,29.0,1.2,-30.7,5.73,2.41,-26.4,32.4
2012-07-27 01:52:00,0.0,1.9051,0.0009,384.85,0.28,178.3,29.2,138.00,33.96,24.65,36.45,0.99,-24.62,-25.46,-51,553,-941,29.0,20.8,4.3,29.0,1.2,-30.8,5.73,2.40,-26.4,32.4
2012-07-27 01:53:00,0.0,1.9050,0.0010,385.31,0.30,178.4,26.6,138.00,33.96,24.65,36.45,1.03,-24.88,-25.47,-51,553,-941,29.0,20.4,4.1,29.0,1.2,-30.7,5.73,2.40,-26.4,32.4
2012-07-27 01:54:00,0.0,1.9054,0.0009,385.06,0.32,175.4,24.6,138.00,33.96,24.65,36.46,1.08,-25.14,-25.48,-51,553,-942,29.1,20.6,4.2,29.0,1.2,-30.8,5.73,2.40,-26.4,32.4
2012-07-27 01:55:00,0.0,1.9051,0.0008,384.91,0.29,189.7,31.5,138.00,33.96,24.65,36.45,1.06,-25.37,-25.49,-51,553,-942,29.0,20.8,4.3,29.0,1.2,-30.7,5.73,2.40,-26.4,32.4
2012-07-27 01:56:00,0.0,1.9050,0.0011,385.06,0.30,183.5,28.8,138.00,33.96,24.65,36.45,1.00,-25.29,-25.49,-51,553,-942,29.0,20.7,4.2,29.0,1.2,-30.7,5.73,2.40,-26.4,32.4
2012-07-27 01:57:00,0.0,1.9048,0.0009,384.85,0.30,181.9,29.3,138.00,33.95,24.65,36.46,0.99,-25.20,-25.51,-51,553,-942,29.0,20.9,4.4,29.0,1.2,-30.8,5.73,2.40,-26.4,32.4
2012-07-27 01:58:00,0.0,1.9046,0.0008,384.88,0.28,183.3,25.5,138.00,33.95,24.65,36.46,0.99,-25.37,-25.52,-51,553,-941,29.0,20.9,4.4,29.0,1.2,-30.7,5.73,2.40,-26.4,32.4
2012-07-27 01:59:00,0.0,1.9046,0.0011,384.89,0.30,186.2,28.5,138.00,33.95,24.65,36.45,0.96,-25.38,-25.53,-51,553,-941,29.1,20.8,4.4,29.0,1.2,-30.8,5.73,2.40,-26.4,32.4
2012-07-27 02:00:00,0.0,1.9048,0.0010,384.82,0.34,175.6,27.5,138.00,33.95,24.65,36.46,1.10,-25.20,-25.54,-51,553,-941,29.0,21.0,4.4,29.0,1.2,-30.8,5.73,2.40,-26.4,32.4
2012-07-27 02:01:00,0.0,1.9049,0.0010,384.51,0.29,185.5,33.5,138.00,33.95,24.65,36.46,1.06,-25.36,-25.55,-51,553,-941,29.0,21.2,4.6,29.0,1.2,-30.7,5.73,2.40,-26.4,32.4
2012-07-27 02:02:00,0.0,1.9051,0.0010,384.63,0.46,186.4,25.5,138.00,33.95,24.65,36.46,0.94,-25.49,-25.56,-51,553,-942,29.1,21.2,4.6,29.0,1.2,-30.8,5.73,2.40,-26.4,32.4
2012-07-27 02:03:00,0.0,1.9051,0.0009,384.74,0.32,188.1,30.2,138.00,33.96,24.65,36.46,1.01,-25.24,-25.57,-51,553,-942,29.0,20.9,4.4,29.0,1.2,-30.8,5.73,2.41,-26.4,32.4
2012-07-27 02:04:00,0.0,1.9053,0.0009,384.76,0.34,177.2,26.6,138.00,33.95,24.65,36.46,1.03,-25.34,-25.59,-51,553,-942,29.0,20.9,4.4,29.0,1.2,-30.9,5.73,2.41,-26.5,32.4
2012-07-27 02:05:00,0.0,1.9054,0.0009,384.65,0.35,187.5,30.4,138.00,33.96,24.65,36.46,1.07,-25.53,-25.60,-51,553,-942,29.0,21.1,4.6,29.0,1.1,-31.0,5.73,2.41,-26.5,32.3
2012-07-27 02:06:00,0.0,1.9061,0.0010,384.63,0.29,171.5,21.9,138.00,33.96,24.65,36.46,1.03,-25.31,-25.60,-51,553,-941,29.1,21.1,4.6,29.0,1.2,-31.0,5.73,2.41,-26.4,32.4
2012-07-27 02:07:00,0.0,1.9063,0.0010,384.72,0.32,174.5,27.3,138.00,33.96,24.65,36.45,1.00,-25.32,-25.61,-51,553,-941,29.1,21.0,4.5,29.0,1.2,-31.0,5.73,2.40,-26.4,32.4
2012-07-27 02:08:00,0.0,1.9060,0.0010,384.56,0.33,184.5,27.5,138.00,33.95,24.65,36.46,1.00,-25.51,-25.62,-51,553,-941,29.1,21.0,4.5,29.0,1.2,-31.0,5.73,2.40,-26.4,32.4
2012-07-27 02:09:00,0.0,1.9055,0.0010,384.70,0.31,186.2,29.0,138.00,33.95,24.65,36.46,1.00,-25.43,-25.62,-51,553,-942,29.1,20.8,4.4,29.0,1.2,-31.0,5.73,2.39,-26.4,32.5
2012-07-27 02:10:00,0.0,1.9046,0.0009,384.89,0.29,178.0,26.5,138.00,33.95,24.65,36.46,0.94,-25.32,-25.25,-51,553,-942,29.1,20.7,4.3,29.0,1.2,-30.6,5.73,2.40,-26.4,32.4
2012-07-27 02:11:00,0.0,1.9045,0.0009,384.74,0.35,183.3,28.9,138.00,33.95,24.65,36.45,0.91,-25.48,-23.61,-51,553,-942,29.1,20.9,4.4,29.0,1.3,-29.9,5.73,2.40,-26.5,32.5
2012-07-27 02:12:00,0.0,1.9044,0.0009,384.94,0.28,182.4,30.0,138.00,33.95,24.65,36.45,0.93,-25.60,-21.65,-51,553,-942,29.1,20.7,4.3,29.0,1.4,-28.7,5.73,2.40,-26.4,32.5
2012-07-27 02:13:00,0.0,1.9041,0.0010,384.92,0.36,182.7,31.4,138.00,33.95,24.65,36.46,0.95,-25.68,-19.69,-51,553,-941,29.1,20.7,4.3,29.0,1.5,-27.8,5.73,2.41,-26.5,32.5
2012-07-27 02:14:00,0.0,1.9041,0.0009,384.17,0.30,184.2,29.7,138.00,33.95,24.65,36.46,0.95,-25.72,-17.81,-51,554,-941,29.1,21.2,4.6,29.0,1.6,-27.5,5.73,2.41,-26.5,32.5
2012-07-27 02:15:00,0.0,1.9038,0.0010,384.51,0.27,182.5,29.1,138.00,33.95,24.65,36.46,0.93,-25.75,-16.03,-51,554,-942,29.1,20.7,4.3,29.0,1.6,-27.6,5.73,2.41,-26.5,32.5
2012-07-27 02:16:00,0.0,1.9040,0.0010,384.84,0.26,189.6,25.3,138.00,33.95,24.65,36.45,0.87,-25.75,-14.34,-51,554,-942,29.1,20.5,4.2,29.0,1.6,-27.7,5.73,2.41,-26.5,32.5
2012-07-27 02:17:00,0.0,1.9038,0.0010,384.58,0.40,180.0,29.3,138.00,33.95,24.65,36.45,0.86,-25.76,-12.74,-51,554,-942,29.1,20.9,4.4,29.0,1.5,-27.9,5.73,2.41,-26.4,32.5
2012-07-27 02:18:00,0.0,1.9034,0.0009,385.06,0.26,188.3,26.7,138.00,33.95,24.65,36.46,0.88,-25.76,-11.23,-51,554,-942,29.1,20.5,4.2,29.0,1.5,-28.1,5.73,2.41,-26.4,32.5
2012-07-27 02:19:00,0.0,1.9040,0.0011,384.94,0.31,182.7,27.3,138.00,33.95,24.65,36.45,0.91,-25.76,-9.79,-51,554,-942,29.1,20.7,4.3,29.0,1.5,-28.2,5.73,2.40,-26.4,32.5